| time (UTC) | temp F | wind direction | speed MPH | gust MPH | rain 1hr in | rain 24hr in | rain mn in | humidity % | barometer mb |
| 20260509221004 | 100 | 243 | 4.0 | 9.0 | 0.00 | 0.00 | 0.00 | 8 | 1009.8 |
| 20260509220501 | 99 | 359 | 1.0 | 9.0 | 0.00 | 0.00 | 0.00 | 8 | 1009.9 |
| 20260509220017 | 98 | 294 | 5.0 | 10.0 | 0.00 | 0.00 | 0.00 | 9 | 1010.0 |
| 20260509215508 | 99 | 341 | 3.0 | 10.0 | 0.00 | 0.00 | 0.00 | 8 | 1010.1 |
| 20260509215001 | 99 | 319 | 5.0 | 13.0 | 0.00 | 0.00 | 0.00 | 9 | 1010.2 |
| 20260509214515 | 99 | 209 | 4.0 | 14.0 | 0.00 | 0.00 | 0.00 | 9 | 1010.2 |
| 20260509214008 | 99 | 320 | 4.0 | 14.0 | 0.00 | 0.00 | 0.00 | 9 | 1010.3 |
| 20260509213502 | 98 | 250 | 0.0 | 8.0 | 0.00 | 0.00 | 0.00 | 9 | 1010.4 |
| 20260509213016 | 98 | 263 | 4.0 | 9.0 | 0.00 | 0.00 | 0.00 | 9 | 1010.5 |
| 20260509212503 | 98 | 253 | 2.0 | 9.0 | 0.00 | 0.00 | 0.00 | 9 | 1010.6 |
| 20260509212002 | 98 | 293 | 3.0 | 11.0 | 0.00 | 0.00 | 0.00 | 8 | 1010.7 |
| 20260509211516 | 98 | 348 | 3.0 | 11.0 | 0.00 | 0.00 | 0.00 | 9 | 1010.7 |
| 20260509211004 | 98 | 326 | 5.0 | 10.0 | 0.00 | 0.00 | 0.00 | 9 | 1010.8 |
| 20260509210501 | 98 | 273 | 4.0 | 9.0 | 0.00 | 0.00 | 0.00 | 9 | 1010.8 |
| 20260509210014 | 97 | 287 | 4.0 | 9.0 | 0.00 | 0.00 | 0.00 | 9 | 1011.0 |
| 20260509205501 | 97 | 319 | 2.0 | 12.0 | 0.00 | 0.00 | 0.00 | 9 | 1011.0 |
| 20260509205001 | 98 | 310 | 6.0 | 12.0 | 0.00 | 0.00 | 0.00 | 9 | 1011.0 |
| 20260509204517 | 98 | 300 | 5.0 | 9.0 | 0.00 | 0.00 | 0.00 | 9 | 1011.1 |
| 20260509204005 | 97 | 262 | 4.0 | 9.0 | 0.00 | 0.00 | 0.00 | 10 | 1011.2 |
| 20260509203508 | 97 | 309 | 4.0 | 12.0 | 0.00 | 0.00 | 0.00 | 9 | 1011.3 |
| 20260509203014 | 96 | 262 | 4.0 | 12.0 | 0.00 | 0.00 | 0.00 | 10 | 1011.4 |
| 20260509202505 | 97 | 309 | 5.0 | 10.0 | 0.00 | 0.00 | 0.00 | 9 | 1011.4 |
| 20260509202009 | 97 | 309 | 2.0 | 10.0 | 0.00 | 0.00 | 0.00 | 10 | 1011.6 |
| 20260509201516 | 96 | 275 | 4.0 | 10.0 | 0.00 | 0.00 | 0.00 | 10 | 1011.6 |
| 20260509201004 | 97 | 342 | 4.0 | 9.0 | 0.00 | 0.00 | 0.00 | 10 | 1011.7 |
| 20260509200511 | 97 | 247 | 4.0 | 11.0 | 0.00 | 0.00 | 0.00 | 10 | 1011.8 |
| 20260509200016 | 96 | 289 | 5.0 | 11.0 | 0.00 | 0.00 | 0.00 | 10 | 1011.9 |
| 20260509195507 | 96 | 326 | 3.0 | 12.0 | 0.00 | 0.00 | 0.00 | 10 | 1011.9 |
| 20260509195007 | 95 | 288 | 5.0 | 12.0 | 0.00 | 0.00 | 0.00 | 10 | 1011.9 |
| 20260509194522 | 96 | 260 | 7.0 | 12.0 | 0.00 | 0.00 | 0.00 | 10 | 1012.0 |
| 20260509194003 | 96 | 351 | 7.0 | 12.0 | 0.00 | 0.00 | 0.00 | 10 | 1012.1 |
| 20260509193512 | 96 | 316 | 4.0 | 12.0 | 0.00 | 0.00 | 0.00 | 10 | 1012.2 |
| 20260509193016 | 95 | 327 | 7.0 | 12.0 | 0.00 | 0.00 | 0.00 | 10 | 1012.2 |
| 20260509192505 | 95 | 298 | 4.0 | 10.0 | 0.00 | 0.00 | 0.00 | 10 | 1012.2 |
| 20260509192011 | 96 | 316 | 6.0 | 10.0 | 0.00 | 0.00 | 0.00 | 10 | 1012.2 |
| 20260509191513 | 95 | 335 | 3.0 | 12.0 | 0.00 | 0.00 | 0.00 | 11 | 1012.3 |
| 20260509191006 | 96 | 269 | 4.0 | 12.0 | 0.00 | 0.00 | 0.00 | 11 | 1012.4 |
| 20260509190509 | 94 | 266 | 3.0 | 10.0 | 0.00 | 0.00 | 0.00 | 12 | 1012.5 |
| 20260509190016 | 95 | 281 | 4.0 | 10.0 | 0.00 | 0.00 | 0.00 | 12 | 1012.5 |
| 20260509185504 | 94 | 301 | 4.0 | 12.0 | 0.00 | 0.00 | 0.00 | 12 | 1012.5 |
| 20260509185010 | 94 | 349 | 4.0 | 12.0 | 0.00 | 0.00 | 0.00 | 12 | 1012.6 |
| 20260509184520 | 93 | 291 | 4.0 | 9.0 | 0.00 | 0.00 | 0.00 | 12 | 1012.6 |
| 20260509184004 | 94 | 280 | 5.0 | 9.0 | 0.00 | 0.00 | 0.00 | 12 | 1012.7 |
| 20260509183508 | 93 | 341 | 1.0 | 11.0 | 0.00 | 0.00 | 0.00 | 12 | 1012.9 |
| 20260509183015 | 93 | 304 | 2.0 | 11.0 | 0.00 | 0.00 | 0.00 | 13 | 1012.9 |
| 20260509182503 | 92 | 238 | 3.0 | 10.0 | 0.00 | 0.00 | 0.00 | 13 | 1013.0 |
| 20260509182006 | 93 | 278 | 5.0 | 11.0 | 0.00 | 0.00 | 0.00 | 12 | 1013.0 |
| 20260509181516 | 92 | 1 | 2.0 | 11.0 | 0.00 | 0.00 | 0.00 | 13 | 1013.1 |
| 20260509181004 | 93 | 319 | 6.0 | 11.0 | 0.00 | 0.00 | 0.00 | 12 | 1013.1 |
| 20260509180508 | 92 | 339 | 1.0 | 7.0 | 0.00 | 0.00 | 0.00 | 12 | 1013.2 |
| 20260509180021 | 91 | 263 | 1.0 | 7.0 | 0.00 | 0.00 | 0.00 | 13 | 1013.3 |
| 20260509175504 | 91 | 330 | 3.0 | 6.0 | 0.00 | 0.00 | 0.00 | 14 | 1013.4 |
| 20260509175009 | 91 | 328 | 3.0 | 6.0 | 0.00 | 0.00 | 0.00 | 14 | 1013.4 |
| 20260509174514 | 90 | 245 | 3.0 | 7.0 | 0.00 | 0.00 | 0.00 | 14 | 1013.4 |
| 20260509174003 | 91 | 278 | 3.0 | 7.0 | 0.00 | 0.00 | 0.00 | 14 | 1013.4 |
| 20260509173507 | 90 | 282 | 0.0 | 5.0 | 0.00 | 0.00 | 0.00 | 15 | 1013.4 |
| 20260509173016 | 90 | 276 | 0.0 | 5.0 | 0.00 | 0.00 | 0.00 | 15 | 1013.5 |
| 20260509172504 | 90 | 271 | 1.0 | 6.0 | 0.00 | 0.00 | 0.00 | 15 | 1013.5 |
| 20260509172006 | 89 | 302 | 2.0 | 6.0 | 0.00 | 0.00 | 0.00 | 15 | 1013.6 |
| 20260509171516 | 89 | 232 | 2.0 | 6.0 | 0.00 | 0.00 | 0.00 | 16 | 1013.6 |
| 20260509171003 | 88 | 259 | 1.0 | 7.0 | 0.00 | 0.00 | 0.00 | 17 | 1013.6 |
| 20260509170507 | 88 | 238 | 3.0 | 7.0 | 0.00 | 0.00 | 0.00 | 17 | 1013.7 |
| 20260509170014 | 87 | 249 | 2.0 | 5.0 | 0.00 | 0.00 | 0.00 | 17 | 1013.7 |
| 20260509165503 | 87 | 243 | 2.0 | 5.0 | 0.00 | 0.00 | 0.00 | 18 | 1013.7 |
| 20260509165009 | 86 | 229 | 0.0 | 4.0 | 0.00 | 0.00 | 0.00 | 19 | 1013.8 |
| 20260509164515 | 86 | 225 | 0.0 | 4.0 | 0.00 | 0.00 | 0.00 | 19 | 1013.8 |
| 20260509164004 | 85 | 228 | 1.0 | 4.0 | 0.00 | 0.00 | 0.00 | 19 | 1013.8 |
| 20260509163510 | 85 | 214 | 2.0 | 4.0 | 0.00 | 0.00 | 0.00 | 20 | 1013.8 |
| 20260509163020 | 85 | 213 | 0.0 | 3.0 | 0.00 | 0.00 | 0.00 | 20 | 1013.9 |
| 20260509162503 | 84 | 212 | 0.0 | 4.0 | 0.00 | 0.00 | 0.00 | 20 | 1013.9 |
| 20260509162010 | 84 | 210 | 1.0 | 4.0 | 0.00 | 0.00 | 0.00 | 21 | 1013.9 |
| 20260509161515 | 83 | 188 | 1.0 | 4.0 | 0.00 | 0.00 | 0.00 | 21 | 1014.0 |
| 20260509161005 | 83 | 178 | 0.0 | 5.0 | 0.00 | 0.00 | 0.00 | 22 | 1013.9 |
| 20260509160507 | 82 | 179 | 1.0 | 5.0 | 0.00 | 0.00 | 0.00 | 22 | 1013.9 |
| 20260509160014 | 82 | 175 | 0.0 | 4.0 | 0.00 | 0.00 | 0.00 | 23 | 1014.0 |
| 20260509155502 | 81 | 175 | 1.0 | 4.0 | 0.00 | 0.00 | 0.00 | 24 | 1014.0 |
| 20260509155007 | 81 | 167 | 1.0 | 5.0 | 0.00 | 0.00 | 0.00 | 24 | 1014.0 |
| 20260509154516 | 80 | 162 | 1.0 | 5.0 | 0.00 | 0.00 | 0.00 | 24 | 1014.0 |
| 20260509154011 | 80 | 156 | 1.0 | 4.0 | 0.00 | 0.00 | 0.00 | 25 | 1014.0 |
| 20260509153509 | 79 | 155 | 1.0 | 3.0 | 0.00 | 0.00 | 0.00 | 26 | 1014.0 |
| 20260509153015 | 79 | 156 | 1.0 | 4.0 | 0.00 | 0.00 | 0.00 | 27 | 1014.0 |
| 20260509152510 | 78 | 156 | 0.0 | 4.0 | 0.00 | 0.00 | 0.00 | 28 | 1014.0 |
| 20260509152016 | 78 | 143 | 1.0 | 3.0 | 0.00 | 0.00 | 0.00 | 28 | 1014.0 |
| 20260509151516 | 77 | 139 | 0.0 | 3.0 | 0.00 | 0.00 | 0.00 | 28 | 1014.1 |
| 20260509151010 | 77 | 84 | 0.0 | 4.0 | 0.00 | 0.00 | 0.00 | 28 | 1014.1 |
| 20260509150508 | 76 | 15 | 1.0 | 4.0 | 0.00 | 0.00 | 0.00 | 28 | 1014.0 |
| 20260509150019 | 76 | 360 | 0.0 | 5.0 | 0.00 | 0.00 | 0.00 | 28 | 1014.1 |
| 20260509145507 | 76 | 11 | 0.0 | 5.0 | 0.00 | 0.00 | 0.00 | 29 | 1014.2 |
| 20260509145007 | 75 | 10 | 1.0 | 4.0 | 0.00 | 0.00 | 0.00 | 29 | 1014.2 |
| 20260509144518 | 75 | 360 | 1.0 | 5.0 | 0.00 | 0.00 | 0.00 | 30 | 1014.2 |
| 20260509144007 | 74 | 360 | 1.0 | 5.0 | 0.00 | 0.00 | 0.00 | 30 | 1014.2 |
| 20260509143511 | 73 | 360 | 1.0 | 5.0 | 0.00 | 0.00 | 0.00 | 30 | 1014.2 |
| 20260509143014 | 73 | 360 | 1.0 | 5.0 | 0.00 | 0.00 | 0.00 | 31 | 1014.2 |
| 20260509142507 | 72 | 360 | 1.0 | 6.0 | 0.00 | 0.00 | 0.00 | 31 | 1014.1 |
| 20260509142007 | 72 | 360 | 1.0 | 6.0 | 0.00 | 0.00 | 0.00 | 31 | 1014.0 |
| 20260509141531 | 72 | 360 | 1.0 | 5.0 | 0.00 | 0.00 | 0.00 | 31 | 1014.0 |
| 20260509141010 | 71 | 360 | 1.0 | 4.0 | 0.00 | 0.00 | 0.00 | 31 | 1013.9 |
| 20260509140506 | 71 | 360 | 1.0 | 4.0 | 0.00 | 0.00 | 0.00 | 32 | 1013.9 |
| 20260509140024 | 71 | 10 | 1.0 | 4.0 | 0.00 | 0.00 | 0.00 | 32 | 1013.9 |
| 20260509135511 | 70 | 9 | 0.0 | 2.0 | 0.00 | 0.00 | 0.00 | 33 | 1013.8 |
| 20260509135011 | 69 | 8 | 0.0 | 3.0 | 0.00 | 0.00 | 0.00 | 35 | 1013.8 |
| 20260509134514 | 69 | 11 | 0.0 | 3.0 | 0.00 | 0.00 | 0.00 | 35 | 1013.7 |
| 20260509134009 | 68 | 11 | 0.0 | 3.0 | 0.00 | 0.00 | 0.00 | 36 | 1013.7 |
| 20260509133506 | 67 | 11 | 0.0 | 3.0 | 0.00 | 0.00 | 0.00 | 36 | 1013.6 |
| 20260509133016 | 67 | 11 | 0.0 | 2.0 | 0.00 | 0.00 | 0.00 | 36 | 1013.5 |
| 20260509132508 | 66 | 360 | 0.0 | 2.0 | 0.00 | 0.00 | 0.00 | 36 | 1013.5 |
| 20260509132008 | 66 | 360 | 0.0 | 2.0 | 0.00 | 0.00 | 0.00 | 37 | 1013.5 |
| 20260509131513 | 65 | 11 | 0.0 | 2.0 | 0.00 | 0.00 | 0.00 | 37 | 1013.5 |
| 20260509131005 | 64 | 10 | 0.0 | 3.0 | 0.00 | 0.00 | 0.00 | 38 | 1013.3 |
| 20260509130512 | 64 | 8 | 0.0 | 3.0 | 0.00 | 0.00 | 0.00 | 38 | 1013.3 |
| 20260509130016 | 63 | 8 | 0.0 | 1.0 | 0.00 | 0.00 | 0.00 | 39 | 1013.2 |
| 20260509125504 | 63 | 360 | 0.0 | 1.0 | 0.00 | 0.00 | 0.00 | 40 | 1013.2 |
| 20260509125012 | 63 | 12 | 0.0 | 1.0 | 0.00 | 0.00 | 0.00 | 41 | 1013.1 |
| 20260509124515 | 63 | 360 | 0.0 | 0.0 | 0.00 | 0.00 | 0.00 | 40 | 1013.1 |
| 20260509124002 | 63 | 360 | 0.0 | 0.0 | 0.00 | 0.00 | 0.00 | 40 | 1013.0 |
| 20260509123509 | 63 | 360 | 0.0 | 0.0 | 0.00 | 0.00 | 0.00 | 40 | 1013.0 |
| 20260509123012 | 63 | 360 | 0.0 | 0.0 | 0.00 | 0.00 | 0.00 | 40 | 1012.9 |
| 20260509122503 | 63 | 360 | 0.0 | 1.0 | 0.00 | 0.00 | 0.00 | 39 | 1012.9 |
| 20260509122009 | 64 | 360 | 0.0 | 2.0 | 0.00 | 0.00 | 0.00 | 38 | 1012.9 |
| 20260509121515 | 64 | 360 | 0.0 | 2.0 | 0.00 | 0.00 | 0.00 | 38 | 1012.8 |
| 20260509121004 | 64 | 360 | 0.0 | 2.0 | 0.00 | 0.00 | 0.00 | 38 | 1012.8 |
| 20260509120509 | 64 | 360 | 0.0 | 2.0 | 0.00 | 0.00 | 0.00 | 38 | 1012.6 |
| 20260509120018 | 64 | 10 | 0.0 | 3.0 | 0.00 | 0.00 | 0.00 | 38 | 1012.7 |
| 20260509115506 | 64 | 360 | 1.0 | 3.0 | 0.00 | 0.00 | 0.00 | 38 | 1012.7 |
| 20260509115011 | 64 | 360 | 1.0 | 4.0 | 0.00 | 0.00 | 0.00 | 38 | 1012.7 |
| 20260509114517 | 65 | 360 | 1.0 | 4.0 | 0.00 | 0.00 | 0.00 | 37 | 1012.6 |
| 20260509114002 | 65 | 360 | 1.0 | 4.0 | 0.00 | 0.00 | 0.00 | 37 | 1012.7 |
| 20260509113509 | 65 | 360 | 1.0 | 3.0 | 0.00 | 0.00 | 0.00 | 37 | 1012.7 |
| 20260509113015 | 65 | 360 | 0.0 | 3.0 | 0.00 | 0.00 | 0.00 | 36 | 1012.6 |
| 20260509112503 | 65 | 360 | 1.0 | 3.0 | 0.00 | 0.00 | 0.00 | 37 | 1012.6 |
| 20260509112008 | 65 | 360 | 0.0 | 2.0 | 0.00 | 0.00 | 0.00 | 36 | 1012.6 |
| 20260509111526 | 65 | 360 | 0.0 | 2.0 | 0.00 | 0.00 | 0.00 | 36 | 1012.6 |
| 20260509111005 | 66 | 360 | 0.0 | 2.0 | 0.00 | 0.00 | 0.00 | 35 | 1012.5 |
| 20260509110507 | 66 | 360 | 0.0 | 2.0 | 0.00 | 0.00 | 0.00 | 34 | 1012.5 |
| 20260509110015 | 67 | 360 | 0.0 | 2.0 | 0.00 | 0.00 | 0.00 | 34 | 1012.5 |
| 20260509105503 | 67 | 360 | 1.0 | 2.0 | 0.00 | 0.00 | 0.00 | 33 | 1012.4 |
| 20260509105007 | 68 | 360 | 0.0 | 2.0 | 0.00 | 0.00 | 0.00 | 31 | 1012.4 |
| 20260509104525 | 68 | 360 | 0.0 | 2.0 | 0.00 | 0.00 | 0.00 | 30 | 1012.4 |
| 20260509104008 | 69 | 360 | 0.0 | 1.0 | 0.00 | 0.00 | 0.00 | 30 | 1012.4 |
| 20260509103506 | 69 | 360 | 0.0 | 2.0 | 0.00 | 0.00 | 0.00 | 30 | 1012.4 |
| 20260509103016 | 69 | 360 | 0.0 | 2.0 | 0.00 | 0.00 | 0.00 | 30 | 1012.4 |
| 20260509102505 | 69 | 360 | 0.0 | 2.0 | 0.00 | 0.00 | 0.00 | 30 | 1012.4 |
| 20260509102009 | 69 | 360 | 0.0 | 2.0 | 0.00 | 0.00 | 0.00 | 30 | 1012.5 |
| 20260509101517 | 69 | 360 | 1.0 | 2.0 | 0.00 | 0.00 | 0.00 | 30 | 1012.5 |
| 20260509101008 | 69 | 360 | 0.0 | 2.0 | 0.00 | 0.00 | 0.00 | 30 | 1012.5 |
| 20260509100505 | 69 | 360 | 0.0 | 2.0 | 0.00 | 0.00 | 0.00 | 30 | 1012.5 |
| 20260509100021 | 69 | 360 | 0.0 | 2.0 | 0.00 | 0.00 | 0.00 | 30 | 1012.5 |
| 20260509095508 | 69 | 360 | 0.0 | 2.0 | 0.00 | 0.00 | 0.00 | 30 | 1012.5 |
| 20260509095006 | 69 | 360 | 0.0 | 4.0 | 0.00 | 0.00 | 0.00 | 30 | 1012.4 |
| 20260509094516 | 70 | 10 | 1.0 | 4.0 | 0.00 | 0.00 | 0.00 | 30 | 1012.5 |
| 20260509094006 | 70 | 13 | 0.0 | 5.0 | 0.00 | 0.00 | 0.00 | 30 | 1012.5 |
| 20260509093507 | 70 | 360 | 1.0 | 5.0 | 0.00 | 0.00 | 0.00 | 30 | 1012.5 |
| 20260509093016 | 70 | 360 | 2.0 | 5.0 | 0.00 | 0.00 | 0.00 | 30 | 1012.4 |
| 20260509092512 | 70 | 360 | 2.0 | 5.0 | 0.00 | 0.00 | 0.00 | 30 | 1012.4 |
| 20260509092006 | 71 | 360 | 1.0 | 5.0 | 0.00 | 0.00 | 0.00 | 30 | 1012.5 |
| 20260509091516 | 72 | 360 | 1.0 | 7.0 | 0.00 | 0.00 | 0.00 | 30 | 1012.5 |
| 20260509091010 | 74 | 360 | 1.0 | 7.0 | 0.00 | 0.00 | 0.00 | 29 | 1012.5 |
| 20260509090507 | 76 | 360 | 1.0 | 3.0 | 0.00 | 0.00 | 0.00 | 24 | 1012.5 |
| 20260509090017 | 77 | 360 | 0.0 | 4.0 | 0.00 | 0.00 | 0.00 | 22 | 1012.4 |
| 20260509085507 | 77 | 360 | 1.0 | 4.0 | 0.00 | 0.00 | 0.00 | 23 | 1012.4 |
| 20260509085007 | 77 | 360 | 1.0 | 4.0 | 0.00 | 0.00 | 0.00 | 23 | 1012.4 |
| 20260509084515 | 77 | 360 | 2.0 | 4.0 | 0.00 | 0.00 | 0.00 | 23 | 1012.4 |
| 20260509084007 | 77 | 360 | 2.0 | 4.0 | 0.00 | 0.00 | 0.00 | 22 | 1012.4 |
| 20260509083509 | 77 | 18 | 1.0 | 4.0 | 0.00 | 0.00 | 0.00 | 22 | 1012.4 |
| 20260509083022 | 77 | 360 | 2.0 | 4.0 | 0.00 | 0.00 | 0.00 | 22 | 1012.4 |
| 20260509082508 | 77 | 360 | 1.0 | 4.0 | 0.00 | 0.00 | 0.00 | 23 | 1012.4 |
| 20260509082008 | 77 | 360 | 2.0 | 4.0 | 0.00 | 0.00 | 0.00 | 23 | 1012.4 |
| 20260509081515 | 77 | 360 | 1.0 | 5.0 | 0.00 | 0.00 | 0.00 | 23 | 1012.4 |
| 20260509081009 | 77 | 360 | 1.0 | 5.0 | 0.00 | 0.00 | 0.00 | 22 | 1012.4 |
| 20260509080507 | 77 | 360 | 2.0 | 5.0 | 0.00 | 0.00 | 0.00 | 22 | 1012.4 |
| 20260509080017 | 77 | 360 | 2.0 | 5.0 | 0.00 | 0.00 | 0.00 | 22 | 1012.4 |
| 20260509075509 | 77 | 360 | 2.0 | 5.0 | 0.00 | 0.00 | 0.00 | 23 | 1012.4 |
| 20260509075007 | 77 | 360 | 2.0 | 5.0 | 0.00 | 0.00 | 0.00 | 23 | 1012.4 |
| 20260509074514 | 77 | 360 | 2.0 | 4.0 | 0.00 | 0.00 | 0.00 | 23 | 1012.4 |
| 20260509074011 | 77 | 360 | 2.0 | 4.0 | 0.00 | 0.00 | 0.00 | 23 | 1012.4 |
| 20260509073506 | 77 | 360 | 1.0 | 4.0 | 0.00 | 0.00 | 0.00 | 23 | 1012.5 |
| 20260509073015 | 77 | 360 | 2.0 | 5.0 | 0.00 | 0.00 | 0.00 | 23 | 1012.5 |
| 20260509072511 | 77 | 360 | 1.0 | 5.0 | 0.00 | 0.00 | 0.00 | 23 | 1012.5 |
| 20260509072006 | 77 | 360 | 1.0 | 6.0 | 0.00 | 0.00 | 0.00 | 23 | 1012.5 |
| 20260509071514 | 77 | 360 | 2.0 | 6.0 | 0.00 | 0.00 | 0.00 | 23 | 1012.5 |
| 20260509071007 | 76 | 360 | 2.0 | 5.0 | 0.00 | 0.00 | 0.00 | 23 | 1012.5 |
| 20260509070507 | 76 | 360 | 1.0 | 4.0 | 0.00 | 0.00 | 0.00 | 24 | 1012.5 |
| 20260509070016 | 75 | 360 | 1.0 | 5.0 | 0.00 | 0.00 | 0.00 | 25 | 1012.4 |
| 20260509065513 | 74 | 360 | 2.0 | 5.0 | 0.00 | 0.00 | 0.00 | 26 | 1012.4 |
| 20260509065008 | 73 | 360 | 1.0 | 4.0 | 0.00 | 0.00 | 0.00 | 27 | 1012.5 |
| 20260509064525 | 72 | 360 | 1.0 | 4.0 | 0.00 | 0.00 | 0.00 | 28 | 1012.5 |
| 20260509064009 | 72 | 360 | 2.0 | 4.0 | 0.00 | 0.00 | 0.00 | 29 | 1012.5 |
| 20260509063509 | 72 | 360 | 0.0 | 2.0 | 0.00 | 0.00 | 0.00 | 28 | 1012.3 |
| 20260509063015 | 72 | 360 | 0.0 | 0.0 | 0.00 | 0.00 | 0.00 | 28 | 1012.2 |
| 20260509062511 | 73 | 360 | 0.0 | 0.0 | 0.00 | 0.00 | 0.00 | 27 | 1012.2 |
| 20260509062006 | 73 | 360 | 0.0 | 1.0 | 0.00 | 0.00 | 0.00 | 26 | 1012.2 |
| 20260509061533 | 73 | 360 | 0.0 | 1.0 | 0.00 | 0.00 | 0.00 | 26 | 1012.2 |
| 20260509061011 | 74 | 360 | 0.0 | 2.0 | 0.00 | 0.00 | 0.00 | 26 | 1012.2 |
| 20260509060507 | 74 | 360 | 0.0 | 2.0 | 0.00 | 0.00 | 0.00 | 26 | 1012.2 |
| 20260509060015 | 74 | 360 | 0.0 | 1.0 | 0.00 | 0.00 | 0.00 | 26 | 1012.2 |
| 20260509055511 | 74 | 360 | 0.0 | 1.0 | 0.00 | 0.00 | 0.00 | 26 | 1012.0 |
| 20260509055010 | 74 | 360 | 0.0 | 1.0 | 0.00 | 0.00 | 0.00 | 25 | 1012.0 |
| 20260509054515 | 75 | 360 | 0.0 | 1.0 | 0.00 | 0.00 | 0.00 | 25 | 1011.9 |
| 20260509054005 | 75 | 360 | 0.0 | 1.0 | 0.00 | 0.00 | 0.00 | 25 | 1011.9 |
| 20260509053503 | 75 | 360 | 0.0 | 1.0 | 0.00 | 0.00 | 0.00 | 24 | 1011.9 |
| 20260509053027 | 76 | 360 | 0.0 | 1.0 | 0.00 | 0.00 | 0.00 | 23 | 1012.0 |
| 20260509052504 | 76 | 360 | 0.0 | 0.0 | 0.00 | 0.00 | 0.00 | 23 | 1011.9 |
| 20260509052002 | 77 | 360 | 0.0 | 0.0 | 0.00 | 0.00 | 0.00 | 22 | 1012.0 |
| 20260509051515 | 77 | 360 | 0.0 | 1.0 | 0.00 | 0.00 | 0.00 | 21 | 1011.9 |
| 20260509051004 | 78 | 360 | 0.0 | 1.0 | 0.00 | 0.00 | 0.00 | 21 | 1011.9 |
| 20260509050502 | 78 | 360 | 0.0 | 1.0 | 0.00 | 0.00 | 0.00 | 21 | 1011.9 |
| 20260509050013 | 78 | 360 | 0.0 | 2.0 | 0.00 | 0.00 | 0.00 | 21 | 1011.9 |
| 20260509045503 | 78 | 360 | 0.0 | 2.0 | 0.00 | 0.00 | 0.00 | 20 | 1011.9 |
| 20260509045003 | 78 | 360 | 0.0 | 2.0 | 0.00 | 0.00 | 0.00 | 21 | 1011.9 |
| 20260509044514 | 78 | 360 | 0.0 | 3.0 | 0.00 | 0.00 | 0.00 | 21 | 1011.8 |
| 20260509044005 | 78 | 360 | 0.0 | 3.0 | 0.00 | 0.00 | 0.00 | 21 | 1011.8 |
| 20260509043508 | 78 | 360 | 1.0 | 3.0 | 0.00 | 0.00 | 0.00 | 20 | 1011.8 |
| 20260509043018 | 79 | 360 | 0.0 | 2.0 | 0.00 | 0.00 | 0.00 | 20 | 1011.7 |
| 20260509042506 | 79 | 360 | 0.0 | 2.0 | 0.00 | 0.00 | 0.00 | 20 | 1011.7 |
| 20260509042010 | 80 | 360 | 0.0 | 1.0 | 0.00 | 0.00 | 0.00 | 19 | 1011.7 |
| 20260509041516 | 80 | 360 | 0.0 | 0.0 | 0.00 | 0.00 | 0.00 | 19 | 1011.6 |
| 20260509041003 | 81 | 360 | 0.0 | 0.0 | 0.00 | 0.00 | 0.00 | 18 | 1011.5 |
| 20260509040506 | 82 | 360 | 0.0 | 3.0 | 0.00 | 0.00 | 0.00 | 18 | 1011.4 |
| 20260509040014 | 82 | 360 | 0.0 | 3.0 | 0.00 | 0.00 | 0.00 | 18 | 1011.3 |
| 20260509035503 | 82 | 360 | 0.0 | 4.0 | 0.00 | 0.00 | 0.00 | 17 | 1011.3 |
| 20260509035010 | 82 | 360 | 1.0 | 4.0 | 0.00 | 0.00 | 0.00 | 17 | 1011.3 |
| 20260509034513 | 83 | 360 | 1.0 | 4.0 | 0.00 | 0.00 | 0.00 | 17 | 1011.4 |
| 20260509034003 | 83 | 360 | 0.0 | 3.0 | 0.00 | 0.00 | 0.00 | 17 | 1011.3 |
| 20260509033510 | 83 | 360 | 1.0 | 3.0 | 0.00 | 0.00 | 0.00 | 16 | 1011.3 |
| 20260509033015 | 84 | 360 | 1.0 | 3.0 | 0.00 | 0.00 | 0.00 | 16 | 1011.3 |
| 20260509032503 | 84 | 360 | 1.0 | 3.0 | 0.00 | 0.00 | 0.00 | 16 | 1011.1 |
| 20260509032016 | 84 | 360 | 1.0 | 3.0 | 0.00 | 0.00 | 0.00 | 15 | 1011.0 |
| 20260509031516 | 85 | 360 | 1.0 | 3.0 | 0.00 | 0.00 | 0.00 | 15 | 1010.9 |
| 20260509031004 | 85 | 360 | 1.0 | 3.0 | 0.00 | 0.00 | 0.00 | 15 | 1010.9 |
| 20260509030509 | 85 | 360 | 1.0 | 4.0 | 0.00 | 0.00 | 0.00 | 14 | 1010.9 |
| 20260509030014 | 86 | 360 | 1.0 | 4.0 | 0.00 | 0.00 | 0.00 | 14 | 1010.8 |
| 20260509025503 | 86 | 360 | 1.0 | 4.0 | 0.00 | 0.00 | 0.00 | 14 | 1010.7 |
| 20260509025010 | 86 | 360 | 0.0 | 5.0 | 0.00 | 0.00 | 0.00 | 14 | 1010.7 |
| 20260509024516 | 87 | 360 | 2.0 | 5.0 | 0.00 | 0.00 | 0.00 | 14 | 1010.6 |
| 20260509024006 | 87 | 360 | 2.0 | 6.0 | 0.00 | 0.00 | 0.00 | 13 | 1010.5 |
| 20260509023507 | 88 | 360 | 1.0 | 6.0 | 0.00 | 0.00 | 0.00 | 13 | 1010.5 |
| 20260509023012 | 88 | 360 | 2.0 | 7.0 | 0.00 | 0.00 | 0.00 | 13 | 1010.4 |
| 20260509022505 | 88 | 360 | 3.0 | 8.0 | 0.00 | 0.00 | 0.00 | 13 | 1010.4 |
| 20260509022007 | 88 | 360 | 2.0 | 8.0 | 0.00 | 0.00 | 0.00 | 13 | 1010.3 |
| 20260509021512 | 89 | 360 | 2.0 | 7.0 | 0.00 | 0.00 | 0.00 | 13 | 1010.3 |
| 20260509021003 | 89 | 9 | 2.0 | 8.0 | 0.00 | 0.00 | 0.00 | 12 | 1010.3 |
| 20260509020509 | 90 | 10 | 4.0 | 9.0 | 0.00 | 0.00 | 0.00 | 12 | 1010.3 |
| 20260509020014 | 90 | 8 | 3.0 | 9.0 | 0.00 | 0.00 | 0.00 | 12 | 1010.3 |
| 20260509015503 | 90 | 9 | 4.0 | 11.0 | 0.00 | 0.00 | 0.00 | 12 | 1010.3 |
| 20260509015010 | 91 | 9 | 3.0 | 12.0 | 0.00 | 0.00 | 0.00 | 11 | 1010.2 |
| 20260509014514 | 91 | 9 | 4.0 | 14.0 | 0.00 | 0.00 | 0.00 | 11 | 1010.2 |
| 20260509014003 | 91 | 31 | 7.0 | 14.0 | 0.00 | 0.00 | 0.00 | 11 | 1010.1 |
| 20260509013506 | 92 | 345 | 6.0 | 14.0 | 0.00 | 0.00 | 0.00 | 12 | 1010.1 |
| 20260509013012 | 92 | 315 | 4.0 | 14.0 | 0.00 | 0.00 | 0.00 | 11 | 1010.1 |
| 20260509012502 | 92 | 295 | 3.0 | 12.0 | 0.00 | 0.00 | 0.00 | 11 | 1010.1 |
| 20260509012011 | 92 | 311 | 6.0 | 12.0 | 0.00 | 0.00 | 0.00 | 11 | 1010.1 |
| 20260509011512 | 92 | 307 | 5.0 | 10.0 | 0.00 | 0.00 | 0.00 | 11 | 1010.0 |
| 20260509011003 | 92 | 318 | 5.0 | 10.0 | 0.00 | 0.00 | 0.00 | 11 | 1010.1 |
| 20260509010508 | 93 | 293 | 6.0 | 11.0 | 0.00 | 0.00 | 0.00 | 11 | 1010.0 |
| 20260509010023 | 93 | 284 | 6.0 | 11.0 | 0.00 | 0.00 | 0.00 | 11 | 1010.0 |
| 20260509005508 | 93 | 303 | 6.0 | 12.0 | 0.00 | 0.00 | 0.00 | 11 | 1010.0 |
| 20260509005007 | 93 | 313 | 5.0 | 17.0 | 0.00 | 0.00 | 0.00 | 11 | 1010.2 |
| 20260509004527 | 93 | 340 | 7.0 | 17.0 | 0.00 | 0.00 | 0.00 | 10 | 1010.2 |
| 20260509004005 | 93 | 288 | 4.0 | 15.0 | 0.00 | 0.00 | 0.00 | 10 | 1010.1 |
| 20260509003507 | 94 | 276 | 6.0 | 15.0 | 0.00 | 0.00 | 0.00 | 10 | 1010.1 |
| 20260509003015 | 94 | 274 | 6.0 | 15.0 | 0.00 | 0.00 | 0.00 | 10 | 1010.0 |
| 20260509002503 | 94 | 285 | 7.0 | 13.0 | 0.00 | 0.00 | 0.00 | 10 | 1010.2 |
| 20260509002010 | 94 | 312 | 3.0 | 13.0 | 0.00 | 0.00 | 0.00 | 10 | 1010.2 |
| 20260509001512 | 94 | 319 | 7.0 | 13.0 | 0.00 | 0.00 | 0.00 | 10 | 1010.3 |
| 20260509001002 | 95 | 273 | 5.0 | 12.0 | 0.00 | 0.00 | 0.00 | 10 | 1010.2 |
| 20260509000509 | 94 | 309 | 4.0 | 12.0 | 0.00 | 0.00 | 0.00 | 10 | 1010.2 |
| 20260509000011 | 94 | 311 | 5.0 | 15.0 | 0.00 | 0.00 | 0.00 | 10 | 1010.2 |
| 20260508235503 | 94 | 293 | 7.0 | 15.0 | 0.00 | 0.00 | 0.00 | 9 | 1010.2 |
| 20260508235007 | 95 | 291 | 4.0 | 11.0 | 0.00 | 0.00 | 0.00 | 9 | 1010.2 |
| 20260508234512 | 94 | 258 | 2.0 | 13.0 | 0.00 | 0.00 | 0.00 | 10 | 1010.2 |
| 20260508234003 | 94 | 330 | 7.0 | 13.0 | 0.00 | 0.00 | 0.00 | 9 | 1010.2 |
| 20260508233507 | 96 | 320 | 5.0 | 14.0 | 0.00 | 0.00 | 0.00 | 9 | 1010.2 |
| 20260508233014 | 94 | 349 | 3.0 | 14.0 | 0.00 | 0.00 | 0.00 | 10 | 1010.3 |
| 20260508232509 | 95 | 360 | 6.0 | 15.0 | 0.00 | 0.00 | 0.00 | 10 | 1010.2 |
| 20260508232009 | 94 | 326 | 5.0 | 15.0 | 0.00 | 0.00 | 0.00 | 10 | 1010.4 |
| 20260508231515 | 95 | 344 | 6.0 | 14.0 | 0.00 | 0.00 | 0.00 | 9 | 1010.4 |
| 20260508231010 | 95 | 323 | 6.0 | 14.0 | 0.00 | 0.00 | 0.00 | 9 | 1010.3 |
| 20260508230506 | 94 | 273 | 6.0 | 11.0 | 0.00 | 0.00 | 0.00 | 10 | 1010.4 |
| 20260508230014 | 94 | 295 | 5.0 | 14.0 | 0.00 | 0.00 | 0.00 | 10 | 1010.4 |
| 20260508225507 | 94 | 303 | 6.0 | 14.0 | 0.00 | 0.00 | 0.00 | 9 | 1010.5 |
| 20260508225006 | 95 | 310 | 5.0 | 11.0 | 0.00 | 0.00 | 0.00 | 11 | 1010.5 |
| 20260508224512 | 95 | 317 | 5.0 | 11.0 | 0.00 | 0.00 | 0.00 | 10 | 1010.7 |
| 20260508224009 | 94 | 281 | 6.0 | 16.0 | 0.00 | 0.00 | 0.00 | 11 | 1010.7 |
| 20260508223508 | 94 | 359 | 5.0 | 16.0 | 0.00 | 0.00 | 0.00 | 10 | 1010.7 |
| 20260508223033 | 95 | 300 | 8.0 | 16.0 | 0.00 | 0.00 | 0.00 | 10 | 1010.8 |
| 20260508222509 | 94 | 285 | 5.0 | 14.0 | 0.00 | 0.00 | 0.00 | 11 | 1010.8 |
| 20260508222011 | 94 | 276 | 7.0 | 14.0 | 0.00 | 0.00 | 0.00 | 11 | 1010.8 |
| 20260508221514 | 94 | 286 | 8.0 | 15.0 | 0.00 | 0.00 | 0.00 | 11 | 1010.9 |